Date,TemperatureHighF,TemperatureAvgF,TemperatureLowF,DewpointHighF,DewpointAvgF,DewpointLowF,HumidityHigh,HumidityAvg,HumidityLow,PressureMaxIn,PressureMinIn,WindSpeedMaxMPH,WindSpeedAvgMPH,GustSpeedMaxMPH,PrecipitationSumIn
2013-1-1,44.3,40.9,37.3,32.0,29.8,24.0,80,65,50,30.05,29.93,8,2,11,0.00
2013-1-2,39.8,34.3,28.0,30.0,21.1,16.0,72,59,45,30.27,30.03,13,5,15,0.00
2013-1-3,38.2,30.3,26.3,22.0,19.1,16.0,78,64,48,30.29,30.18,5,2,9,0.00
2013-1-4,44.1,36.4,27.0,24.0,21.8,20.0,84,57,43,30.25,30.12,16,5,24,0.00
2013-1-5,41.7,36.7,32.6,30.0,24.8,19.0,83,63,50,30.40,30.18,12,3,18,0.00
2013-1-6,48.0,41.7,30.9,34.0,31.4,28.0,90,68,50,30.24,30.05,8,2,12,0.00
2013-1-7,46.4,41.2,28.9,32.0,28.4,26.0,88,62,47,30.47,30.17,19,5,20,0.00
2013-1-8,55.2,40.2,27.1,39.0,33.0,25.0,93,77,44,30.46,30.39,9,2,14,0.00
2013-1-9,54.0,41.5,31.0,43.0,36.7,30.0,95,84,44,30.42,30.25,13,2,19,0.00
2013-1-10,53.5,45.3,37.7,37.0,31.8,28.0,85,61,43,30.62,30.40,13,4,17,0.00
2013-1-11,42.4,39.4,33.3,41.0,36.3,31.0,96,89,77,30.54,30.13,4,1,6,0.03
2013-1-12,53.3,45.0,41.6,48.0,42.9,40.0,97,92,80,30.20,30.13,7,1,8,0.00
2013-1-13,47.7,44.6,41.1,47.0,43.8,40.0,97,97,95,30.17,30.02,12,3,15,0.02
2013-1-14,62.4,54.7,41.5,60.0,49.0,37.0,98,82,60,30.32,29.98,17,6,23,0.07
2013-1-15,41.6,39.8,37.3,40.0,37.2,34.0,95,90,81,30.37,30.19,16,7,16,0.65
2013-1-16,41.7,38.8,35.8,40.0,37.2,34.0,95,94,91,30.18,29.89,18,4,18,0.39
2013-1-17,44.0,41.7,38.8,41.0,35.5,31.0,96,79,62,30.16,30.01,15,3,15,0.04
2013-1-18,38.9,34.9,28.7,32.0,20.3,8.0,76,57,34,30.54,30.05,25,6,27,0.00
2013-1-19,54.5,41.8,32.4,31.0,27.2,20.0,73,58,37,30.48,30.01,13,6,20,0.00
2013-1-20,59.3,48.2,38.6,33.0,25.0,13.0,60,42,24,30.12,29.84,18,7,27,0.00
2013-1-21,43.5,36.3,31.9,37.0,23.0,13.0,81,59,41,30.15,29.82,19,8,27,0.00
2013-1-22,31.4,22.3,18.7,15.0,1.5,-4.0,53,41,31,30.33,29.95,24,12,36,0.00
2013-1-23,26.4,21.1,13.8,7.0,2.8,0.0,63,46,33,30.39,30.20,18,5,23,0.00
2013-1-24,26.8,21.8,17.7,18.0,9.5,2.0,89,62,36,30.55,30.14,19,9,29,0.00
2013-1-25,23.9,20.3,17.3,18.0,8.7,2.0,89,63,41,30.55,30.12,6,2,11,0.00
2013-1-26,33.2,27.0,21.7,21.0,19.1,18.0,86,73,57,30.48,30.12,11,4,18,0.00
2013-1-27,35.3,27.2,19.6,25.0,21.2,17.0,90,79,61,30.64,30.48,8,2,9,0.00
2013-1-28,49.6,36.0,27.8,44.0,32.4,24.0,96,87,73,30.56,30.07,8,2,13,0.15
2013-1-29,57.8,47.0,36.9,48.0,42.8,35.0,95,86,70,30.17,30.04,11,3,20,0.00
2013-1-30,68.8,52.1,43.4,61.0,49.4,42.0,97,91,73,30.02,29.32,20,6,28,0.15
2013-1-31,60.1,44.4,29.5,59.0,28.2,14.0,97,55,34,29.96,29.20,28,13,41,0.75